Weather History for KTVF - December, 2012

Change the Weather History Date:

Monday, December 31, 2012

  Actual Average (KGFK) Record (KGFK)
Temperature  
Mean Temperature -6 °F 8 °F  
Max Temperature 0 °F 17 °F 40 °F (1953)
Min Temperature -13 °F -2 °F -32 °F (1967)
Degree Days  
Heating Degree Days 72 58  
Month to date heating degree days 1660  
Since 1 July heating degree days 3859  
Cooling Degree Days 0 0  
Month to date cooling degree days 0  
Year to date cooling degree days 379  
Moisture  
Dew Point -10 °F    
Average Humidity 85    
Maximum Humidity 100    
Minimum Humidity 70    
Precipitation  
Precipitation 0.00 in 0.02 in 0.26 in (1966)
Month to date precipitation 0.61  
Year to date precipitation 20.81  
Snow  
Snow 0.00 in 0.40 in 4.60 in (2010)
Month to date snowfall 10.7  
Since 1 July snowfall 19.9  
Snow Depth -    
Sea Level Pressure  
Sea Level Pressure 30.21 in    
Wind  
Wind Speed 6 mph (WNW)    
Max Wind Speed 12 mph    
Max Gust Speed -    
Visibility 10 miles    
Events      
T = Trace of Precipitation, MM = Missing Value Source: NWS Daily Summary

Daily Weather History Graph

Daily Weather History Graph

Search for Another Location

Airport or City:

Trip Planner

Search our weather history database for the weather conditions in past years. The results will help you decide how hot, cold, wet, or windy it might be!

Date:

Astronomy

Dec. 31, 2012 Rise Set
Actual Time 8:14 AM CST 4:41 PM CST
Civil Twilight 7:38 AM CST 5:17 PM CST
Nautical Twilight 6:59 AM CST 5:57 PM CST
Astronomical Twilight 6:21 AM CST 6:35 PM CST
Moon 8:30 PM CST (12/31) 9:41 AM CST (12/31)
Length of Visible Light 9h 39m
Length of Day
8h 26m
Waning Gibbous, 90% of the Moon is Illuminated
Dec 31
Waning Gibbous
Jan 4
Last Quarter
Jan 11
New
Jan 18
First Quarter
Jan 26
Full

Hourly Weather History & Observations

Time (CST) Temp. Windchill Dew Point Humidity Pressure Visibility Wind Dir Wind Speed Gust Speed Precip Events Conditions
12:15 AM -2.2 °F -18.0 °F -5.8 °F 85% 30.09 in 10.0 mi WNW 9.2 mph - N/A   Clear
12:35 AM -2.2 °F -18.0 °F -7.6 °F 78% 30.09 in 10.0 mi NW 9.2 mph - N/A   Clear
12:55 AM -5.8 °F -22.4 °F -9.4 °F 84% 30.10 in 10.0 mi NW 9.2 mph - N/A   Clear
1:15 AM -5.8 °F -22.4 °F -7.6 °F 92% 30.10 in 10.0 mi NW 9.2 mph - N/A   Clear
1:35 AM -5.8 °F -23.4 °F -9.4 °F 84% 30.11 in 10.0 mi NW 10.4 mph - N/A   Clear
1:55 AM -5.8 °F -23.4 °F -7.6 °F 92% 30.12 in 10.0 mi NW 10.4 mph - N/A   Clear
2:15 AM -5.8 °F -23.4 °F -11.2 °F 77% 30.13 in 10.0 mi NW 10.4 mph - N/A   Clear
2:35 AM -5.8 °F -23.4 °F -9.4 °F 84% 30.14 in 10.0 mi NW 10.4 mph - N/A   Clear
2:55 AM -5.8 °F -23.4 °F -9.4 °F 84% 30.15 in 10.0 mi NW 10.4 mph - N/A   Clear
3:15 AM -5.8 °F -23.4 °F -11.2 °F 77% 30.15 in 10.0 mi NNW 10.4 mph - N/A   Clear
3:35 AM -7.6 °F -24.6 °F -11.2 °F 84% 30.16 in 10.0 mi NNW 9.2 mph - N/A   Clear
3:55 AM -7.6 °F -24.6 °F -9.4 °F 92% 30.16 in 10.0 mi NNW 9.2 mph - N/A   Clear
4:15 AM -5.8 °F -24.4 °F -9.4 °F 84% 30.17 in 10.0 mi NNW 11.5 mph - N/A   Clear
4:35 AM -5.8 °F -23.4 °F -11.2 °F 77% 30.17 in 10.0 mi NNW 10.4 mph - N/A   Clear
4:55 AM -7.6 °F -20.6 °F -9.4 °F 92% 30.18 in 10.0 mi NNW 5.8 mph - N/A   Clear
5:15 AM -7.6 °F -18.8 °F -13.0 °F 77% 30.19 in 10.0 mi WNW 4.6 mph - N/A   Clear
5:35 AM -7.6 °F - -9.4 °F 92% 30.20 in 10.0 mi Calm Calm - N/A   Clear
5:55 AM -7.6 °F -16.5 °F -9.4 °F 92% 30.20 in 10.0 mi WSW 3.5 mph - N/A   Clear
6:15 AM -9.4 °F -22.7 °F -14.8 °F 77% 30.21 in 10.0 mi West 5.8 mph - N/A   Clear
6:55 AM -9.4 °F -22.7 °F -11.2 °F 92% 30.22 in 10.0 mi West 5.8 mph - N/A   Clear
7:15 AM -9.4 °F -22.7 °F -13.0 °F 84% 30.22 in 10.0 mi West 5.8 mph - N/A   Clear
7:35 AM -11.2 °F -23.0 °F -16.6 °F 77% 30.22 in 10.0 mi WSW 4.6 mph - N/A   Clear
7:55 AM -11.2 °F -23.0 °F -16.6 °F 77% 30.22 in 10.0 mi West 4.6 mph - N/A   Clear
8:15 AM -11.2 °F -20.6 °F -13.0 °F 92% 30.22 in 10.0 mi WNW 3.5 mph - N/A   Clear
8:35 AM -13.0 °F - -16.6 °F 84% 30.22 in 10.0 mi Calm Calm - N/A   Clear
8:55 AM -13.0 °F - -16.6 °F 84% 30.22 in 10.0 mi Calm Calm - N/A   Clear
9:15 AM -11.2 °F -23.0 °F -14.8 °F 84% 30.23 in 10.0 mi West 4.6 mph - N/A   Clear
9:35 AM -11.2 °F -24.8 °F -13.0 °F 92% 30.24 in 10.0 mi WNW 5.8 mph - N/A   Clear
9:55 AM -9.4 °F -24.3 °F -13.0 °F 84% 30.24 in 10.0 mi NW 6.9 mph - N/A   Clear
10:15 AM -9.4 °F -20.9 °F -9.4 °F 100% 30.24 in 10.0 mi NW 4.6 mph - N/A   Clear
10:35 AM -7.6 °F -22.1 °F -11.2 °F 84% 30.24 in 1.0 mi NW 6.9 mph - N/A   Clear
10:55 AM -7.6 °F -18.8 °F -9.4 °F 92% 30.25 in 10.0 mi NW 4.6 mph - N/A   Clear
11:15 AM -5.8 °F -14.5 °F -7.6 °F 92% 30.24 in 10.0 mi WNW 3.5 mph - N/A   Clear
11:35 AM -5.8 °F -14.5 °F -9.4 °F 84% 30.24 in 10.0 mi WNW 3.5 mph - N/A   Clear
11:55 AM -4.0 °F - -5.8 °F 92% 30.24 in 10.0 mi Calm Calm - N/A   Clear
12:15 PM -4.0 °F -12.4 °F -7.6 °F 85% 30.24 in 10.0 mi West 3.5 mph - N/A   Clear
12:35 PM -2.2 °F -10.4 °F -5.8 °F 85% 30.24 in 10.0 mi West 3.5 mph - N/A   Clear
12:55 PM -2.2 °F -10.4 °F -5.8 °F 85% 30.23 in 10.0 mi West 3.5 mph - N/A   Clear
1:15 PM -0.4 °F -8.3 °F -5.8 °F 78% 30.23 in 10.0 mi West 3.5 mph - N/A   Clear
1:35 PM -0.4 °F -10.4 °F -5.8 °F 78% 30.23 in 10.0 mi West 4.6 mph - N/A   Clear
1:55 PM -0.4 °F -12.0 °F -5.8 °F 78% 30.23 in 10.0 mi West 5.8 mph - N/A   Clear
2:15 PM -0.4 °F -12.0 °F -5.8 °F 78% 30.23 in 10.0 mi West 5.8 mph - N/A   Clear
2:35 PM -0.4 °F -13.4 °F -5.8 °F 78% 30.23 in 10.0 mi West 6.9 mph - N/A   Clear
2:55 PM -0.4 °F -13.4 °F -5.8 °F 78% 30.23 in 10.0 mi West 6.9 mph - N/A   Clear
3:15 PM -0.4 °F -12.0 °F -5.8 °F 78% 30.23 in 10.0 mi WNW 5.8 mph - N/A   Clear
3:35 PM -0.4 °F -12.0 °F -5.8 °F 78% 30.23 in 10.0 mi West 5.8 mph - N/A   Clear
3:55 PM -2.2 °F -12.5 °F -7.6 °F 78% 30.24 in 10.0 mi WNW 4.6 mph - N/A   Clear
4:15 PM -2.2 °F - -5.8 °F 85% 30.23 in 10.0 mi Calm Calm - N/A   Clear
4:35 PM -2.2 °F - -7.6 °F 78% 30.23 in 10.0 mi Calm Calm - N/A   Clear
4:55 PM -2.2 °F - -7.6 °F 78% 30.23 in 10.0 mi Calm Calm - N/A   Clear
5:15 PM -4.0 °F - -7.6 °F 85% 30.23 in 10.0 mi Calm Calm - N/A   Clear
5:35 PM -5.8 °F - -7.6 °F 92% 30.23 in 10.0 mi Calm Calm - N/A   Clear
6:15 PM -7.6 °F - -9.4 °F 92% 30.24 in 10.0 mi Calm Calm - N/A   Clear
6:35 PM -9.4 °F - -11.2 °F 92% 30.24 in 10.0 mi Calm Calm - N/A   Clear
6:55 PM -9.4 °F -18.6 °F -9.4 °F 100% 30.23 in 10.0 mi SSW 3.5 mph - N/A   Clear
7:15 PM -9.4 °F - -14.8 °F 77% 30.23 in 10.0 mi Calm Calm - N/A   Clear
7:35 PM -9.4 °F - -13.0 °F 84% 30.22 in 10.0 mi Calm Calm - N/A   Clear
7:55 PM -9.4 °F - -11.2 °F 92% 30.22 in 10.0 mi Calm Calm - N/A   Clear
8:15 PM -9.4 °F - -11.2 °F 92% 30.23 in 10.0 mi Calm Calm - N/A   Clear
8:35 PM -9.4 °F - -11.2 °F 92% 30.22 in 10.0 mi Calm Calm - N/A   Clear
8:55 PM -9.4 °F - -11.2 °F 92% 30.22 in 10.0 mi Calm Calm - N/A   Clear
9:15 PM -11.2 °F - -13.0 °F 92% 30.23 in 10.0 mi Calm Calm - N/A   Clear
9:35 PM -11.2 °F -20.6 °F -13.0 °F 92% 30.22 in 10.0 mi South 3.5 mph - N/A   Clear
9:55 PM -11.2 °F -23.0 °F -14.8 °F 84% 30.21 in 10.0 mi South 4.6 mph - N/A   Clear
10:15 PM -11.2 °F -23.0 °F -16.6 °F 77% 30.21 in 10.0 mi South 4.6 mph - N/A   Clear
10:35 PM -11.2 °F -20.6 °F -13.0 °F 92% 30.22 in 10.0 mi South 3.5 mph - N/A   Clear
10:55 PM -11.2 °F -26.4 °F -13.0 °F 92% 30.21 in 10.0 mi SSW 6.9 mph - N/A   Clear
11:15 PM -11.2 °F -26.4 °F -18.4 °F 70% 30.21 in 10.0 mi SSW 6.9 mph - N/A   Clear
11:35 PM -11.2 °F -23.0 °F -11.2 °F 100% 30.20 in 10.0 mi South 4.6 mph - N/A   Clear
11:55 PM -11.2 °F -24.8 °F -16.6 °F 77% 30.21 in 10.0 mi South 5.8 mph - N/A   Clear